Location: Molveno
(46.1500°N, 10.9667°E)
Time: 17:10:41
(UTC+00:00)

APEX - Pass Details

Date: 05 July 2020
Orbit: 333 x 1107 km, 69.9° (Epoch: 11 August)

Event Time Altitude Azimuth Distance (km) Brightness Sun altitude
Rises 23:41:07 0° 325° (NW) 2,125 7.1 -21.0°
Reaches altitude 10° 23:43:07 10° 317° (NW) 1,277 5.7 -21.0°
Enters shadow 23:44:17 21° 303° (WNW) 828 4.5 -21.0°
